Time,TemperatureF,DewpointF,PressureIn,WindDirection,WindDirectionDegrees,WindSpeedMPH,WindSpeedGustMPH,Humidity,HourlyPrecipIn,Conditions,Clouds,dailyrainin,SoftwareType,DateUTC
2013-02-03 00:01:00,16.5,12.0,30.05,NNW,336,0.0,0.0,82,0.00,,---,0.00,VWS V14.00,2013-02-03 05:01:00,
2013-02-03 00:03:00,16.4,11.9,30.04,NNW,336,0.0,0.0,82,0.00,,---,0.00,VWS V14.00,2013-02-03 05:03:00,
2013-02-03 00:04:00,16.4,11.9,30.05,NNW,335,0.0,0.0,82,0.00,,---,0.00,VWS V14.00,2013-02-03 05:04:00,
2013-02-03 00:09:00,16.4,11.9,30.04,NNW,335,0.0,0.0,82,0.00,,---,0.00,VWS V14.00,2013-02-03 05:09:00,
2013-02-03 00:14:00,16.3,11.8,30.04,NNW,335,0.0,4.0,82,0.00,,---,0.00,VWS V14.00,2013-02-03 05:14:00,
2013-02-03 00:19:00,16.3,11.8,30.04,NNW,335,0.0,4.0,82,0.00,,---,0.00,VWS V14.00,2013-02-03 05:19:00,
2013-02-03 00:25:00,16.3,12.3,30.04,NNW,335,0.0,4.0,84,0.00,,---,0.00,VWS V14.00,2013-02-03 05:25:00,
2013-02-03 00:30:00,16.3,12.3,30.05,NNW,335,0.0,4.0,84,0.00,,---,0.00,VWS V14.00,2013-02-03 05:30:00,
2013-02-03 00:35:00,16.3,12.3,30.05,NNW,336,0.0,2.0,84,0.00,,---,0.00,VWS V14.00,2013-02-03 05:35:00,
2013-02-03 00:40:00,16.3,12.1,30.05,NNW,335,2.0,2.0,83,0.00,,---,0.00,VWS V14.00,2013-02-03 05:40:00,
2013-02-03 00:45:00,16.2,12.0,30.05,NNW,336,0.0,2.0,83,0.00,,---,0.00,VWS V14.00,2013-02-03 05:45:00,
2013-02-03 00:50:00,16.1,11.9,30.05,NNW,335,0.0,2.0,83,0.00,,---,0.00,VWS V14.00,2013-02-03 05:50:00,
2013-02-03 00:55:00,16.1,11.9,30.05,NNW,335,2.0,2.0,83,0.00,,---,0.00,VWS V14.00,2013-02-03 05:55:00,
2013-02-03 01:00:00,16.0,11.5,30.05,NNW,335,1.0,1.0,82,0.00,,---,0.00,VWS V14.00,2013-02-03 06:00:00,
2013-02-03 01:05:00,15.9,11.4,30.04,NNW,335,0.0,2.0,82,0.00,,---,0.00,VWS V14.00,2013-02-03 06:05:00,
2013-02-03 01:10:00,15.7,11.2,30.04,NNW,335,0.0,2.0,82,0.00,,---,0.00,VWS V14.00,2013-02-03 06:10:00,
2013-02-03 01:15:00,15.7,11.2,30.04,NNW,336,1.0,2.0,82,0.00,,---,0.00,VWS V14.00,2013-02-03 06:15:00,
2013-02-03 01:20:00,15.5,11.0,30.04,NNW,335,0.0,2.0,82,0.00,,---,0.00,VWS V14.00,2013-02-03 06:20:00,
2013-02-03 01:25:00,15.5,11.3,30.04,NNW,336,0.0,2.0,83,0.00,,---,0.00,VWS V14.00,2013-02-03 06:25:00,
2013-02-03 01:30:00,15.4,11.2,30.03,NNW,335,0.0,0.0,83,0.00,,---,0.00,VWS V14.00,2013-02-03 06:30:00,
2013-02-03 01:35:00,15.4,11.2,30.03,NNW,335,0.0,0.0,83,0.00,,---,0.00,VWS V14.00,2013-02-03 06:35:00,
2013-02-03 01:40:00,15.4,11.2,30.03,NNW,336,0.0,0.0,83,0.00,,---,0.00,VWS V14.00,2013-02-03 06:40:00,
2013-02-03 01:45:00,15.3,11.1,30.03,NNW,336,0.0,2.0,83,0.00,,---,0.00,VWS V14.00,2013-02-03 06:45:00,
2013-02-03 01:50:00,15.3,11.1,30.03,NNW,336,0.0,2.0,83,0.00,,---,0.00,VWS V14.00,2013-02-03 06:50:00,
2013-02-03 01:55:00,15.2,11.0,30.03,NNW,335,0.0,2.0,83,0.00,,---,0.00,VWS V14.00,2013-02-03 06:55:00,
2013-02-03 02:00:00,15.2,11.0,30.02,NNW,335,0.0,0.0,83,0.00,,---,0.00,VWS V14.00,2013-02-03 07:00:00,
2013-02-03 02:05:00,15.2,11.0,30.02,NNW,335,0.0,0.0,83,0.00,,---,0.00,VWS V14.00,2013-02-03 07:05:00,
2013-02-03 02:11:00,15.1,10.9,30.02,NNW,335,0.0,0.0,83,0.00,,---,0.00,VWS V14.00,2013-02-03 07:11:00,
2013-02-03 02:16:00,15.0,10.8,30.02,NNW,336,0.0,0.0,83,0.00,,---,0.00,VWS V14.00,2013-02-03 07:16:00,
2013-02-03 02:21:00,15.0,10.8,30.02,NNW,335,0.0,0.0,83,0.00,,---,0.00,VWS V14.00,2013-02-03 07:21:00,
2013-02-03 02:26:00,15.0,11.1,30.02,NNW,336,0.0,0.0,84,0.00,,---,0.00,VWS V14.00,2013-02-03 07:26:00,
2013-02-03 02:31:00,15.0,11.1,30.01,NNW,336,0.0,0.0,84,0.00,,---,0.00,VWS V14.00,2013-02-03 07:31:00,
2013-02-03 02:36:00,15.0,11.1,30.01,NNW,335,0.0,0.0,84,0.00,,---,0.00,VWS V14.00,2013-02-03 07:36:00,
2013-02-03 02:41:00,15.0,11.3,30.02,NNW,336,0.0,0.0,85,0.00,,---,0.00,VWS V14.00,2013-02-03 07:41:00,
2013-02-03 02:46:00,15.0,11.3,30.02,NNW,336,0.0,1.0,85,0.00,,---,0.00,VWS V14.00,2013-02-03 07:46:00,
2013-02-03 02:51:00,15.0,11.3,30.01,NNW,336,0.0,1.0,85,0.00,,---,0.00,VWS V14.00,2013-02-03 07:51:00,
2013-02-03 02:56:00,14.9,11.2,30.01,NNW,336,0.0,1.0,85,0.00,,---,0.00,VWS V14.00,2013-02-03 07:56:00,
2013-02-03 03:01:00,14.9,11.2,30.01,NNW,336,0.0,0.0,85,0.00,,---,0.00,VWS V14.00,2013-02-03 08:01:00,
2013-02-03 03:06:00,14.8,11.1,30.01,NNW,335,0.0,0.0,85,0.00,,---,0.00,VWS V14.00,2013-02-03 08:06:00,
2013-02-03 03:11:00,14.7,11.0,30.01,NNW,336,0.0,0.0,85,0.00,,---,0.00,VWS V14.00,2013-02-03 08:11:00,
2013-02-03 03:16:00,14.6,10.9,30.00,NNW,335,0.0,0.0,85,0.00,,---,0.00,VWS V14.00,2013-02-03 08:16:00,
2013-02-03 03:21:00,14.5,10.8,30.00,NNW,335,0.0,0.0,85,0.00,,---,0.00,VWS V14.00,2013-02-03 08:21:00,
2013-02-03 03:26:00,14.3,10.6,30.01,NNW,335,0.0,0.0,85,0.00,,---,0.00,VWS V14.00,2013-02-03 08:26:00,
2013-02-03 03:31:00,14.1,10.4,30.00,NNW,335,0.0,0.0,85,0.00,,---,0.00,VWS V14.00,2013-02-03 08:31:00,
2013-02-03 03:36:00,14.0,10.3,30.00,NNW,336,0.0,0.0,85,0.00,,---,0.00,VWS V14.00,2013-02-03 08:36:00,
2013-02-03 03:41:00,13.9,10.2,30.00,NNW,336,0.0,0.0,85,0.00,,---,0.00,VWS V14.00,2013-02-03 08:41:00,
2013-02-03 03:46:00,13.8,10.1,30.00,NNW,336,0.0,0.0,85,0.00,,---,0.00,VWS V14.00,2013-02-03 08:46:00,
2013-02-03 03:51:00,13.7,10.3,30.00,NNW,335,0.0,0.0,86,0.00,,---,0.00,VWS V14.00,2013-02-03 08:51:00,
2013-02-03 03:56:00,13.7,10.3,29.99,NNW,335,0.0,0.0,86,0.00,,---,0.00,VWS V14.00,2013-02-03 08:56:00,
2013-02-03 04:02:00,13.6,10.5,29.99,NNW,336,0.0,0.0,87,0.00,,---,0.00,VWS V14.00,2013-02-03 09:02:00,
2013-02-03 04:07:00,13.7,10.3,29.99,NNW,336,0.0,0.0,86,0.00,,---,0.00,VWS V14.00,2013-02-03 09:07:00,
2013-02-03 04:12:00,13.7,10.6,29.99,NNW,335,0.0,0.0,87,0.00,,---,0.00,VWS V14.00,2013-02-03 09:12:00,
2013-02-03 04:17:00,13.7,10.6,29.99,NNW,335,0.0,0.0,87,0.00,,---,0.00,VWS V14.00,2013-02-03 09:17:00,
2013-02-03 04:22:00,13.7,10.6,29.99,NNW,336,0.0,0.0,87,0.00,,---,0.00,VWS V14.00,2013-02-03 09:22:00,
2013-02-03 04:27:00,13.7,10.3,29.99,NNW,335,0.0,0.0,86,0.00,,---,0.00,VWS V14.00,2013-02-03 09:27:00,
2013-02-03 04:32:00,13.7,10.3,29.99,NNW,335,0.0,0.0,86,0.00,,---,0.00,VWS V14.00,2013-02-03 09:32:00,
2013-02-03 04:37:00,13.7,10.3,29.99,NNW,335,0.0,0.0,86,0.00,,---,0.00,VWS V14.00,2013-02-03 09:37:00,
2013-02-03 04:42:00,13.7,10.3,29.99,NNW,335,0.0,0.0,86,0.00,,---,0.00,VWS V14.00,2013-02-03 09:42:00,
2013-02-03 04:47:00,13.7,10.3,29.98,NNW,336,0.0,0.0,86,0.00,,---,0.00,VWS V14.00,2013-02-03 09:47:00,
2013-02-03 04:52:00,13.7,10.3,29.98,NNW,335,0.0,0.0,86,0.00,,---,0.00,VWS V14.00,2013-02-03 09:52:00,
2013-02-03 04:57:00,13.8,10.4,29.98,NNW,336,0.0,0.0,86,0.00,,---,0.00,VWS V14.00,2013-02-03 09:57:00,
2013-02-03 05:02:00,13.8,10.4,29.98,NNW,336,0.0,0.0,86,0.00,,---,0.00,VWS V14.00,2013-02-03 10:02:00,
2013-02-03 05:07:00,13.8,10.4,29.98,NNW,335,0.0,0.0,86,0.00,,---,0.00,VWS V14.00,2013-02-03 10:07:00,
2013-02-03 05:12:00,13.9,10.5,29.98,NNW,335,0.0,0.0,86,0.00,,---,0.00,VWS V14.00,2013-02-03 10:12:00,
2013-02-03 05:17:00,13.9,10.5,29.97,NNW,336,0.0,0.0,86,0.00,,---,0.00,VWS V14.00,2013-02-03 10:17:00,
2013-02-03 05:22:00,13.9,10.5,29.97,NNW,335,0.0,0.0,86,0.00,,---,0.00,VWS V14.00,2013-02-03 10:22:00,
2013-02-03 05:27:00,13.9,10.5,29.97,NNW,335,0.0,0.0,86,0.00,,---,0.00,VWS V14.00,2013-02-03 10:27:00,
2013-02-03 05:32:00,13.9,10.5,29.97,NNW,336,0.0,0.0,86,0.00,,---,0.00,VWS V14.00,2013-02-03 10:32:00,
2013-02-03 05:37:00,14.0,10.6,29.98,NNW,335,0.0,0.0,86,0.00,,---,0.00,VWS V14.00,2013-02-03 10:37:00,
2013-02-03 05:43:00,13.9,10.5,29.98,NNW,335,0.0,0.0,86,0.00,,---,0.00,VWS V14.00,2013-02-03 10:43:00,
2013-02-03 05:48:00,13.9,10.5,29.98,NNW,335,0.0,0.0,86,0.00,,---,0.00,VWS V14.00,2013-02-03 10:48:00,
2013-02-03 05:53:00,13.9,10.5,29.98,NNW,335,0.0,0.0,86,0.00,,---,0.00,VWS V14.00,2013-02-03 10:53:00,
2013-02-03 05:58:00,13.9,10.5,29.97,NNW,335,0.0,0.0,86,0.00,,---,0.00,VWS V14.00,2013-02-03 10:58:00,
2013-02-03 06:03:00,13.9,10.5,29.97,NNW,335,0.0,0.0,86,0.00,,---,0.00,VWS V14.00,2013-02-03 11:03:00,
2013-02-03 06:08:00,13.9,10.8,29.97,NNW,335,0.0,0.0,87,0.00,,---,0.00,VWS V14.00,2013-02-03 11:08:00,
2013-02-03 06:13:00,13.9,10.8,29.97,NNW,336,0.0,0.0,87,0.00,,---,0.00,VWS V14.00,2013-02-03 11:13:00,
2013-02-03 06:18:00,13.9,10.8,29.97,NNW,335,0.0,0.0,87,0.00,,---,0.00,VWS V14.00,2013-02-03 11:18:00,
2013-02-03 06:23:00,14.0,10.9,29.97,NNW,335,0.0,0.0,87,0.00,,---,0.00,VWS V14.00,2013-02-03 11:23:00,
2013-02-03 06:28:00,14.0,10.9,29.97,NNW,335,0.0,0.0,87,0.00,,---,0.00,VWS V14.00,2013-02-03 11:28:00,
2013-02-03 06:33:00,14.0,10.9,29.97,NNW,335,0.0,0.0,87,0.00,,---,0.00,VWS V14.00,2013-02-03 11:33:00,
2013-02-03 06:38:00,14.0,10.9,29.97,NNW,335,0.0,0.0,87,0.00,,---,0.00,VWS V14.00,2013-02-03 11:38:00,
2013-02-03 06:43:00,14.0,10.9,29.97,NNW,335,0.0,0.0,87,0.00,,---,0.00,VWS V14.00,2013-02-03 11:43:00,
2013-02-03 06:48:00,14.1,10.9,29.97,NNW,336,0.0,0.0,87,0.00,,---,0.00,VWS V14.00,2013-02-03 11:48:00,
2013-02-03 06:53:00,14.1,11.2,29.97,NNW,335,0.0,0.0,88,0.00,,---,0.00,VWS V14.00,2013-02-03 11:53:00,
2013-02-03 06:59:00,14.2,11.1,29.97,NNW,335,0.0,0.0,87,0.00,,---,0.00,VWS V14.00,2013-02-03 11:59:00,
2013-02-03 07:04:00,14.2,11.1,29.97,NNW,336,0.0,0.0,87,0.00,,---,0.00,VWS V14.00,2013-02-03 12:04:00,
2013-02-03 07:09:00,14.1,10.9,29.97,NNW,335,0.0,0.0,87,0.00,,---,0.00,VWS V14.00,2013-02-03 12:09:00,
2013-02-03 07:14:00,14.1,10.9,29.97,NNW,335,0.0,0.0,87,0.00,,---,0.00,VWS V14.00,2013-02-03 12:14:00,
2013-02-03 07:19:00,14.1,10.9,29.97,NNW,336,0.0,0.0,87,0.00,,---,0.00,VWS V14.00,2013-02-03 12:19:00,
2013-02-03 07:24:00,14.1,11.2,29.97,NNW,335,0.0,0.0,88,0.00,,---,0.00,VWS V14.00,2013-02-03 12:24:00,
2013-02-03 07:29:00,14.2,11.3,29.96,NNW,335,0.0,0.0,88,0.00,,---,0.00,VWS V14.00,2013-02-03 12:29:00,
2013-02-03 07:34:00,14.2,11.3,29.96,NNW,335,0.0,0.0,88,0.00,,---,0.00,VWS V14.00,2013-02-03 12:34:00,
2013-02-03 07:39:00,14.2,11.3,29.96,NNW,335,0.0,0.0,88,0.00,,---,0.00,VWS V14.00,2013-02-03 12:39:00,
2013-02-03 07:44:00,14.3,11.4,29.96,NNW,335,0.0,0.0,88,0.00,,---,0.00,VWS V14.00,2013-02-03 12:44:00,
2013-02-03 07:49:00,14.3,11.4,29.96,NNW,335,0.0,0.0,88,0.00,,---,0.00,VWS V14.00,2013-02-03 12:49:00,
2013-02-03 07:54:00,14.3,11.4,29.96,NNW,336,0.0,0.0,88,0.00,,---,0.00,VWS V14.00,2013-02-03 12:54:00,
2013-02-03 07:59:00,14.3,11.4,29.96,NNW,335,0.0,0.0,88,0.00,,---,0.00,VWS V14.00,2013-02-03 12:59:00,
2013-02-03 08:04:00,14.2,11.3,29.96,NNW,335,0.0,0.0,88,0.00,,---,0.00,VWS V14.00,2013-02-03 13:04:00,
2013-02-03 08:09:00,14.2,11.3,29.97,NNW,335,0.0,0.0,88,0.00,,---,0.00,VWS V14.00,2013-02-03 13:09:00,
2013-02-03 08:14:00,14.2,11.3,29.97,NNW,335,0.0,0.0,88,0.00,,---,0.00,VWS V14.00,2013-02-03 13:14:00,
2013-02-03 08:19:00,14.1,11.2,29.98,NNW,336,0.0,0.0,88,0.00,,---,0.00,VWS V14.00,2013-02-03 13:19:00,
2013-02-03 08:25:00,14.1,11.2,29.98,NNW,336,0.0,1.0,88,0.00,,---,0.00,VWS V14.00,2013-02-03 13:25:00,
2013-02-03 08:30:00,14.1,11.5,29.98,NNW,335,0.0,2.0,89,0.00,,---,0.00,VWS V14.00,2013-02-03 13:30:00,
2013-02-03 08:35:00,14.2,11.3,29.98,NNW,335,0.0,1.0,88,0.00,,---,0.00,VWS V14.00,2013-02-03 13:35:00,
2013-02-03 08:40:00,14.3,11.7,29.98,NNW,336,0.0,2.0,89,0.00,,---,0.00,VWS V14.00,2013-02-03 13:40:00,
2013-02-03 08:45:00,14.3,11.7,29.98,NNW,335,0.0,2.0,89,0.00,,---,0.00,VWS V14.00,2013-02-03 13:45:00,
2013-02-03 08:50:00,14.4,11.8,29.99,West,265,0.0,4.0,89,0.00,,---,0.00,VWS V14.00,2013-02-03 13:50:00,
2013-02-03 08:55:00,14.4,11.5,29.98,West,265,0.0,4.0,88,0.00,,---,0.00,VWS V14.00,2013-02-03 13:55:00,
2013-02-03 09:00:00,14.5,11.9,29.98,West,266,0.0,0.0,89,0.00,,---,0.00,VWS V14.00,2013-02-03 14:00:00,
2013-02-03 09:05:00,14.6,11.9,29.99,West,265,2.0,4.0,89,0.00,,---,0.00,VWS V14.00,2013-02-03 14:05:00,
2013-02-03 09:10:00,14.8,12.1,29.98,West,265,3.0,4.0,89,0.00,,---,0.00,VWS V14.00,2013-02-03 14:10:00,
2013-02-03 09:15:00,14.9,12.2,29.99,West,259,3.0,4.0,89,0.00,,---,0.00,VWS V14.00,2013-02-03 14:15:00,
2013-02-03 09:20:00,15.0,12.4,29.99,West,259,3.0,4.0,89,0.00,,---,0.00,VWS V14.00,2013-02-03 14:20:00,
2013-02-03 09:25:00,15.2,12.6,29.99,West,259,0.0,4.0,89,0.00,,---,0.00,VWS V14.00,2013-02-03 14:25:00,
2013-02-03 09:30:00,15.3,12.6,29.99,West,259,2.0,3.0,89,0.00,,---,0.00,VWS V14.00,2013-02-03 14:30:00,
2013-02-03 09:35:00,15.4,12.7,29.99,West,259,1.0,4.0,89,0.00,,---,0.00,VWS V14.00,2013-02-03 14:35:00,
2013-02-03 09:41:00,15.6,12.9,29.98,West,259,2.0,4.0,89,0.00,,---,0.00,VWS V14.00,2013-02-03 14:41:00,
2013-02-03 09:46:00,15.8,13.1,29.98,WSW,258,1.0,4.0,89,0.00,,---,0.00,VWS V14.00,2013-02-03 14:46:00,
2013-02-03 09:51:00,16.0,13.3,29.99,West,267,0.0,5.0,89,0.00,,---,0.00,VWS V14.00,2013-02-03 14:51:00,
2013-02-03 09:56:00,16.1,13.2,29.98,West,262,5.0,5.0,88,0.00,,---,0.00,VWS V14.00,2013-02-03 14:56:00,
2013-02-03 10:01:00,16.1,12.9,29.99,West,267,2.0,4.0,87,0.00,,---,0.00,VWS V14.00,2013-02-03 15:01:00,
2013-02-03 10:06:00,16.1,12.9,29.98,West,263,1.0,7.0,87,0.00,,---,0.00,VWS V14.00,2013-02-03 15:06:00,
2013-02-03 10:11:00,16.1,12.9,29.98,West,260,1.0,7.0,87,0.00,,---,0.00,VWS V14.00,2013-02-03 15:11:00,
2013-02-03 10:16:00,15.9,12.5,29.98,WSW,257,5.0,8.0,86,0.00,,---,0.00,VWS V14.00,2013-02-03 15:16:00,
2013-02-03 10:21:00,15.8,12.4,29.98,WSW,254,1.0,8.0,86,0.00,,---,0.00,VWS V14.00,2013-02-03 15:21:00,
2013-02-03 10:26:00,16.0,12.6,29.98,WSW,254,4.0,8.0,86,0.00,,---,0.00,VWS V14.00,2013-02-03 15:26:00,
2013-02-03 10:31:00,16.1,12.4,29.98,WSW,256,2.0,4.0,85,0.00,,---,0.00,VWS V14.00,2013-02-03 15:31:00,
2013-02-03 10:36:00,16.2,12.2,29.99,WNW,290,4.0,5.0,84,0.00,,---,0.00,VWS V14.00,2013-02-03 15:36:00,
2013-02-03 10:41:00,16.2,12.0,29.99,West,273,2.0,6.0,83,0.00,,---,0.00,VWS V14.00,2013-02-03 15:41:00,
2013-02-03 10:46:00,16.2,12.0,29.99,WNW,286,5.0,8.0,83,0.00,,---,0.00,VWS V14.00,2013-02-03 15:46:00,
2013-02-03 10:51:00,16.3,12.1,29.98,West,269,3.0,8.0,83,0.00,,---,0.00,VWS V14.00,2013-02-03 15:51:00,
2013-02-03 10:56:00,16.3,11.8,29.99,West,268,1.0,8.0,82,0.00,,---,0.00,VWS V14.00,2013-02-03 15:56:00,
2013-02-03 11:01:00,16.4,11.9,29.98,West,272,2.0,6.0,82,0.00,,---,0.00,VWS V14.00,2013-02-03 16:01:00,
2013-02-03 11:07:00,16.4,11.9,29.98,West,280,1.0,6.0,82,0.00,,---,0.00,VWS V14.00,2013-02-03 16:07:00,
2013-02-03 11:12:00,16.5,12.0,29.98,West,277,2.0,6.0,82,0.00,,---,0.00,VWS V14.00,2013-02-03 16:12:00,
2013-02-03 11:17:00,16.4,11.6,29.98,West,279,2.0,11.0,81,0.00,,---,0.00,VWS V14.00,2013-02-03 16:17:00,
2013-02-03 11:22:00,16.4,11.6,29.98,West,281,4.0,11.0,81,0.00,,---,0.00,VWS V14.00,2013-02-03 16:22:00,
2013-02-03 11:27:00,16.5,11.7,29.98,WSW,249,3.0,11.0,81,0.00,,---,0.00,VWS V14.00,2013-02-03 16:27:00,
2013-02-03 11:32:00,16.5,11.7,29.98,WSW,244,3.0,7.0,81,0.00,,---,0.00,VWS V14.00,2013-02-03 16:32:00,
2013-02-03 11:37:00,16.6,11.8,29.98,WNW,285,4.0,7.0,81,0.00,,---,0.00,VWS V14.00,2013-02-03 16:37:00,
2013-02-03 11:42:00,16.6,11.8,29.98,West,270,4.0,7.0,81,0.00,,---,0.00,VWS V14.00,2013-02-03 16:42:00,
2013-02-03 11:47:00,16.6,11.5,29.98,WNW,284,7.0,11.0,80,0.00,,---,0.00,VWS V14.00,2013-02-03 16:47:00,
2013-02-03 11:52:00,16.6,11.5,29.98,West,263,4.0,11.0,80,0.00,,---,0.00,VWS V14.00,2013-02-03 16:52:00,
2013-02-03 11:57:00,16.8,11.7,29.97,West,267,4.0,11.0,80,0.00,,---,0.00,VWS V14.00,2013-02-03 16:57:00,
2013-02-03 12:02:00,16.8,11.4,29.97,West,271,4.0,7.0,79,0.00,,---,0.00,VWS V14.00,2013-02-03 17:02:00,
2013-02-03 12:07:00,17.1,12.0,29.98,West,272,4.0,7.0,80,0.00,,---,0.00,VWS V14.00,2013-02-03 17:07:00,
2013-02-03 12:12:00,17.2,11.8,29.98,WSW,240,2.0,11.0,79,0.00,,---,0.00,VWS V14.00,2013-02-03 17:12:00,
2013-02-03 12:17:00,17.2,11.8,29.98,West,275,5.0,11.0,79,0.00,,---,0.00,VWS V14.00,2013-02-03 17:17:00,
2013-02-03 12:22:00,17.1,12.0,29.98,WSW,254,3.0,11.0,80,0.00,,---,0.00,VWS V14.00,2013-02-03 17:22:00,
2013-02-03 12:27:00,17.2,12.4,29.98,WNW,285,2.0,11.0,81,0.00,,---,0.00,VWS V14.00,2013-02-03 17:27:00,
2013-02-03 12:32:00,17.3,12.2,29.98,WSW,248,6.0,11.0,80,0.00,,---,0.00,VWS V14.00,2013-02-03 17:32:00,
2013-02-03 12:37:00,17.3,12.2,29.98,West,263,3.0,13.0,80,0.00,,---,0.00,VWS V14.00,2013-02-03 17:37:00,
2013-02-03 12:43:00,17.2,12.1,29.97,WSW,254,5.0,13.0,80,0.00,,---,0.00,VWS V14.00,2013-02-03 17:43:00,
2013-02-03 12:48:00,17.3,12.5,29.98,West,271,2.0,13.0,81,0.00,,---,0.00,VWS V14.00,2013-02-03 17:48:00,
2013-02-03 12:53:00,17.5,12.7,29.97,West,260,4.0,13.0,81,0.00,,---,0.00,VWS V14.00,2013-02-03 17:53:00,
2013-02-03 12:58:00,17.5,12.4,29.97,WSW,257,7.0,13.0,80,0.00,,---,0.00,VWS V14.00,2013-02-03 17:58:00,
2013-02-03 13:03:00,17.4,12.6,29.98,West,260,6.0,10.0,81,0.00,,---,0.00,VWS V14.00,2013-02-03 18:03:00,
2013-02-03 13:08:00,17.5,12.7,29.97,WSW,242,7.0,10.0,81,0.00,,---,0.00,VWS V14.00,2013-02-03 18:08:00,
2013-02-03 13:13:00,17.6,12.5,29.97,West,261,6.0,13.0,80,0.00,,---,0.00,VWS V14.00,2013-02-03 18:13:00,
2013-02-03 13:18:00,17.6,12.5,29.97,WNW,285,4.0,14.0,80,0.00,,---,0.00,VWS V14.00,2013-02-03 18:18:00,
2013-02-03 13:23:00,17.9,13.1,29.97,SW,222,5.0,14.0,81,0.00,,---,0.00,VWS V14.00,2013-02-03 18:23:00,
2013-02-03 13:28:00,18.0,12.9,29.97,West,261,5.0,14.0,80,0.00,,---,0.00,VWS V14.00,2013-02-03 18:28:00,
2013-02-03 13:33:00,18.5,13.4,29.97,WSW,257,10.0,12.0,80,0.00,,---,0.00,VWS V14.00,2013-02-03 18:33:00,
2013-02-03 13:38:00,18.8,13.7,29.96,WNW,292,4.0,12.0,80,0.00,,---,0.00,VWS V14.00,2013-02-03 18:38:00,
2013-02-03 13:43:00,19.3,13.9,29.96,West,273,5.0,12.0,79,0.00,,---,0.00,VWS V14.00,2013-02-03 18:43:00,
2013-02-03 13:48:00,19.2,13.2,29.96,West,259,6.0,12.0,77,0.00,,---,0.00,VWS V14.00,2013-02-03 18:48:00,
2013-02-03 13:53:00,18.9,12.9,29.96,WSW,253,6.0,19.0,77,0.00,,---,0.00,VWS V14.00,2013-02-03 18:53:00,
2013-02-03 13:58:00,18.9,12.9,29.96,SW,233,6.0,19.0,77,0.00,,---,0.00,VWS V14.00,2013-02-03 18:58:00,
2013-02-03 14:03:00,18.9,13.2,29.96,West,259,5.0,10.0,78,0.00,,---,0.00,VWS V14.00,2013-02-03 19:03:00,
2013-02-03 14:08:00,19.1,13.4,29.96,WSW,252,8.0,13.0,78,0.00,,---,0.00,VWS V14.00,2013-02-03 19:08:00,
2013-02-03 14:13:00,19.2,13.2,29.96,WSW,240,6.0,14.0,77,0.00,,---,0.00,VWS V14.00,2013-02-03 19:13:00,
2013-02-03 14:18:00,19.4,13.4,29.96,West,279,4.0,14.0,77,0.00,,---,0.00,VWS V14.00,2013-02-03 19:18:00,
2013-02-03 14:23:00,19.6,13.9,29.96,SSW,209,3.0,14.0,78,0.00,,---,0.00,VWS V14.00,2013-02-03 19:23:00,
2013-02-03 14:28:00,19.8,13.8,29.96,West,263,7.0,14.0,77,0.00,,---,0.00,VWS V14.00,2013-02-03 19:28:00,
2013-02-03 14:34:00,19.7,13.7,29.96,WSW,239,7.0,13.0,77,0.00,,---,0.00,VWS V14.00,2013-02-03 19:34:00,
2013-02-03 14:39:00,19.7,13.7,29.97,WSW,246,3.0,18.0,77,0.00,,---,0.00,VWS V14.00,2013-02-03 19:39:00,
2013-02-03 14:44:00,19.7,14.0,29.97,WSW,248,6.0,18.0,78,0.00,,---,0.00,VWS V14.00,2013-02-03 19:44:00,
2013-02-03 14:49:00,19.8,14.1,29.97,West,276,4.0,18.0,78,0.00,,---,0.00,VWS V14.00,2013-02-03 19:49:00,
2013-02-03 14:54:00,20.1,14.1,29.97,West,262,12.0,18.0,77,0.00,,---,0.00,VWS V14.00,2013-02-03 19:54:00,
2013-02-03 14:59:00,20.1,14.1,29.98,West,263,7.0,18.0,77,0.00,,---,0.00,VWS V14.00,2013-02-03 19:59:00,
2013-02-03 15:04:00,20.3,14.3,29.98,West,260,5.0,12.0,77,0.00,,---,0.00,VWS V14.00,2013-02-03 20:04:00,
2013-02-03 15:09:00,20.4,14.1,29.98,West,271,2.0,14.0,76,0.00,,---,0.00,VWS V14.00,2013-02-03 20:09:00,
2013-02-03 15:14:00,20.4,14.4,29.98,West,275,7.0,15.0,77,0.00,,---,0.00,VWS V14.00,2013-02-03 20:14:00,
2013-02-03 15:19:00,20.3,14.3,29.99,West,267,8.0,15.0,77,0.00,,---,0.00,VWS V14.00,2013-02-03 20:19:00,
2013-02-03 15:24:00,20.2,14.2,29.99,WSW,252,6.0,20.0,77,0.00,,---,0.00,VWS V14.00,2013-02-03 20:24:00,
2013-02-03 15:29:00,20.3,14.3,29.99,West,267,3.0,20.0,77,0.00,,---,0.00,VWS V14.00,2013-02-03 20:29:00,
2013-02-03 15:34:00,20.4,14.6,29.99,WNW,286,13.0,17.0,78,0.00,,---,0.00,VWS V14.00,2013-02-03 20:34:00,
2013-02-03 15:39:00,20.4,14.4,29.99,WNW,287,14.0,17.0,77,0.00,,---,0.00,VWS V14.00,2013-02-03 20:39:00,
2013-02-03 15:44:00,20.4,14.4,29.99,West,277,4.0,20.0,77,0.00,,---,0.00,VWS V14.00,2013-02-03 20:44:00,
2013-02-03 15:49:00,20.4,14.4,30.00,West,269,6.0,20.0,77,0.00,,---,0.00,VWS V14.00,2013-02-03 20:49:00,
2013-02-03 15:55:00,20.5,14.4,30.00,WSW,250,7.0,20.0,77,0.00,,---,0.00,VWS V14.00,2013-02-03 20:55:00,
2013-02-03 16:00:00,20.5,14.1,30.00,West,273,4.0,20.0,76,0.00,,---,0.00,VWS V14.00,2013-02-03 21:00:00,
2013-02-03 16:05:00,20.6,14.2,30.00,West,261,3.0,9.0,76,0.00,,---,0.00,VWS V14.00,2013-02-03 21:05:00,
2013-02-03 16:10:00,20.8,14.4,30.00,WSW,257,7.0,17.0,76,0.00,,---,0.00,VWS V14.00,2013-02-03 21:10:00,
2013-02-03 16:15:00,20.9,14.8,30.00,WSW,253,11.0,17.0,77,0.00,,---,0.00,VWS V14.00,2013-02-03 21:15:00,
2013-02-03 16:20:00,20.8,14.4,30.00,West,272,9.0,17.0,76,0.00,,---,0.00,VWS V14.00,2013-02-03 21:20:00,
2013-02-03 16:25:00,20.9,14.5,30.00,WSW,250,4.0,21.0,76,0.00,,---,0.00,VWS V14.00,2013-02-03 21:25:00,
2013-02-03 16:30:00,20.9,14.2,30.00,WNW,292,7.0,8.0,75,0.00,,---,0.00,VWS V14.00,2013-02-03 21:30:00,
2013-02-03 16:35:00,20.7,14.0,30.00,West,267,4.0,20.0,75,0.00,,---,0.00,VWS V14.00,2013-02-03 21:35:00,
2013-02-03 16:40:00,20.4,13.8,30.00,West,263,7.0,20.0,75,0.00,,---,0.00,VWS V14.00,2013-02-03 21:40:00,
2013-02-03 16:45:00,20.2,13.9,30.00,WSW,256,8.0,20.0,76,0.00,,---,0.00,VWS V14.00,2013-02-03 21:45:00,
2013-02-03 16:50:00,20.1,13.8,30.01,WSW,250,8.0,20.0,76,0.00,,---,0.00,VWS V14.00,2013-02-03 21:50:00,
2013-02-03 16:55:00,20.1,13.8,30.01,West,261,3.0,20.0,76,0.00,,---,0.00,VWS V14.00,2013-02-03 21:55:00,
2013-02-03 17:00:00,20.2,13.9,30.02,West,259,2.0,13.0,76,0.00,,---,0.00,VWS V14.00,2013-02-03 22:00:00,
2013-02-03 17:05:00,20.2,14.2,30.02,West,266,3.0,18.0,77,0.00,,---,0.00,VWS V14.00,2013-02-03 22:05:00,
2013-02-03 17:10:00,20.1,14.4,30.01,WNW,284,6.0,18.0,78,0.00,,---,0.00,VWS V14.00,2013-02-03 22:10:00,
2013-02-03 17:15:00,19.9,14.2,30.02,West,260,5.0,18.0,78,0.00,,---,0.00,VWS V14.00,2013-02-03 22:15:00,
2013-02-03 17:20:00,19.9,14.4,30.02,WNW,296,6.0,18.0,79,0.00,,---,0.00,VWS V14.00,2013-02-03 22:20:00,
2013-02-03 17:26:00,19.9,14.7,30.02,West,281,5.0,18.0,80,0.00,,---,0.00,VWS V14.00,2013-02-03 22:26:00,
2013-02-03 17:31:00,19.8,14.9,30.02,West,269,4.0,13.0,81,0.00,,---,0.00,VWS V14.00,2013-02-03 22:31:00,
2013-02-03 17:36:00,19.7,14.8,30.03,West,265,5.0,13.0,81,0.00,,---,0.00,VWS V14.00,2013-02-03 22:36:00,
2013-02-03 17:41:00,19.4,14.8,30.03,West,276,4.0,13.0,82,0.00,,---,0.00,VWS V14.00,2013-02-03 22:41:00,
2013-02-03 17:46:00,19.1,15.1,30.03,West,281,9.0,13.0,84,0.00,,---,0.00,VWS V14.00,2013-02-03 22:46:00,
2013-02-03 17:51:00,18.9,15.1,30.03,WSW,244,4.0,13.0,85,0.00,,---,0.00,VWS V14.00,2013-02-03 22:51:00,
2013-02-03 17:56:00,18.7,15.2,30.03,WSW,257,4.0,13.0,86,0.00,,---,0.00,VWS V14.00,2013-02-03 22:56:00,
2013-02-03 18:01:00,18.6,15.4,30.03,West,261,4.0,4.0,87,0.00,,---,0.00,VWS V14.00,2013-02-03 23:01:00,
2013-02-03 18:06:00,18.7,15.5,30.04,WSW,257,4.0,8.0,87,0.00,,---,0.00,VWS V14.00,2013-02-03 23:06:00,
2013-02-03 18:11:00,18.8,15.8,30.04,West,275,5.0,8.0,88,0.00,,---,0.00,VWS V14.00,2013-02-03 23:11:00,
2013-02-03 18:16:00,18.8,15.8,30.04,West,267,2.0,8.0,88,0.00,,---,0.00,VWS V14.00,2013-02-03 23:16:00,
2013-02-03 18:21:00,18.7,15.7,30.04,West,263,3.0,10.0,88,0.00,,---,0.00,VWS V14.00,2013-02-03 23:21:00,
2013-02-03 18:26:00,18.7,15.5,30.04,West,259,4.0,10.0,87,0.00,,---,0.00,VWS V14.00,2013-02-03 23:26:00,
2013-02-03 18:31:00,18.6,15.4,30.04,WSW,258,6.0,7.0,87,0.00,,---,0.00,VWS V14.00,2013-02-03 23:31:00,
2013-02-03 18:36:00,18.6,15.1,30.04,WSW,255,3.0,8.0,86,0.00,,---,0.00,VWS V14.00,2013-02-03 23:36:00,
2013-02-03 18:41:00,18.7,15.2,30.05,WSW,256,2.0,10.0,86,0.00,,---,0.00,VWS V14.00,2013-02-03 23:41:00,
2013-02-03 18:46:00,18.6,15.4,30.05,WSW,241,6.0,10.0,87,0.00,,---,0.00,VWS V14.00,2013-02-03 23:46:00,
2013-02-03 18:51:00,18.6,15.1,30.05,WSW,257,2.0,10.0,86,0.00,,---,0.00,VWS V14.00,2013-02-03 23:51:00,
2013-02-03 18:57:00,18.4,14.9,30.05,West,259,3.0,10.0,86,0.00,,---,0.00,VWS V14.00,2013-02-03 23:57:00,
2013-02-03 19:02:00,18.4,14.9,30.05,WSW,258,3.0,6.0,86,0.00,,---,0.00,VWS V14.00,2013-02-04 00:02:00,
2013-02-03 19:07:00,18.3,14.8,30.05,West,267,5.0,6.0,86,0.00,,---,0.00,VWS V14.00,2013-02-04 00:07:00,
2013-02-03 19:12:00,18.2,14.7,30.06,West,273,6.0,7.0,86,0.00,,---,0.00,VWS V14.00,2013-02-04 00:12:00,
2013-02-03 19:17:00,18.2,14.7,30.06,West,266,5.0,10.0,86,0.00,,---,0.00,VWS V14.00,2013-02-04 00:17:00,
2013-02-03 19:22:00,18.3,14.8,30.06,West,262,3.0,10.0,86,0.00,,---,0.00,VWS V14.00,2013-02-04 00:22:00,
2013-02-03 19:27:00,18.3,14.8,30.06,West,263,2.0,10.0,86,0.00,,---,0.00,VWS V14.00,2013-02-04 00:27:00,
2013-02-03 19:32:00,18.2,14.7,30.06,West,261,5.0,7.0,86,0.00,,---,0.00,VWS V14.00,2013-02-04 00:32:00,
2013-02-03 19:37:00,18.2,15.0,30.06,West,262,2.0,10.0,87,0.00,,---,0.00,VWS V14.00,2013-02-04 00:37:00,
2013-02-03 19:42:00,18.2,15.0,30.06,WSW,257,4.0,10.0,87,0.00,,---,0.00,VWS V14.00,2013-02-04 00:42:00,
2013-02-03 19:47:00,18.2,15.0,30.06,West,262,3.0,10.0,87,0.00,,---,0.00,VWS V14.00,2013-02-04 00:47:00,
2013-02-03 19:52:00,18.3,15.4,30.07,WSW,255,4.0,10.0,88,0.00,,---,0.00,VWS V14.00,2013-02-04 00:52:00,
2013-02-03 19:57:00,18.4,15.4,30.07,West,274,5.0,10.0,88,0.00,,---,0.00,VWS V14.00,2013-02-04 00:57:00,
2013-02-03 20:02:00,18.5,15.6,30.07,WSW,238,2.0,4.0,88,0.00,,---,0.00,VWS V14.00,2013-02-04 01:02:00,
2013-02-03 20:07:00,18.5,15.6,30.06,West,260,4.0,6.0,88,0.00,,---,0.00,VWS V14.00,2013-02-04 01:07:00,
2013-02-03 20:13:00,18.6,15.4,30.06,West,267,2.0,6.0,87,0.00,,---,0.00,VWS V14.00,2013-02-04 01:13:00,
2013-02-03 20:18:00,18.7,15.5,30.06,WSW,251,4.0,6.0,87,0.00,,---,0.00,VWS V14.00,2013-02-04 01:18:00,
2013-02-03 20:23:00,18.8,15.6,30.06,WSW,255,3.0,7.0,87,0.00,,---,0.00,VWS V14.00,2013-02-04 01:23:00,
2013-02-03 20:28:00,18.9,15.4,30.06,West,261,2.0,7.0,86,0.00,,---,0.00,VWS V14.00,2013-02-04 01:28:00,
2013-02-03 20:33:00,19.0,15.5,30.07,WSW,254,4.0,6.0,86,0.00,,---,0.00,VWS V14.00,2013-02-04 01:33:00,
2013-02-03 20:38:00,19.1,15.3,30.07,WSW,251,3.0,7.0,85,0.00,,---,0.00,VWS V14.00,2013-02-04 01:38:00,
2013-02-03 20:43:00,19.2,15.4,30.07,WSW,254,2.0,7.0,85,0.00,,---,0.00,VWS V14.00,2013-02-04 01:43:00,
2013-02-03 20:48:00,19.3,15.3,30.06,WSW,257,2.0,7.0,84,0.00,,---,0.00,VWS V14.00,2013-02-04 01:48:00,
2013-02-03 20:53:00,19.5,14.9,30.07,West,263,6.0,9.0,82,0.00,,---,0.00,VWS V14.00,2013-02-04 01:53:00,
2013-02-03 20:58:00,19.7,14.8,30.07,West,267,3.0,9.0,81,0.00,,---,0.00,VWS V14.00,2013-02-04 01:58:00,
2013-02-03 21:03:00,19.7,14.5,30.07,WSW,252,3.0,5.0,80,0.00,,---,0.00,VWS V14.00,2013-02-04 02:03:00,
2013-02-03 21:08:00,19.8,14.4,30.07,West,261,5.0,10.0,79,0.00,,---,0.00,VWS V14.00,2013-02-04 02:08:00,
2013-02-03 21:13:00,19.7,14.3,30.07,WSW,250,4.0,11.0,79,0.00,,---,0.00,VWS V14.00,2013-02-04 02:13:00,
2013-02-03 21:18:00,19.7,14.3,30.07,WSW,249,5.0,11.0,79,0.00,,---,0.00,VWS V14.00,2013-02-04 02:18:00,
2013-02-03 21:23:00,19.6,14.2,30.07,WSW,238,3.0,11.0,79,0.00,,---,0.00,VWS V14.00,2013-02-04 02:23:00,
2013-02-03 21:28:00,19.5,14.4,30.07,WSW,241,1.0,11.0,80,0.00,,---,0.00,VWS V14.00,2013-02-04 02:28:00,
2013-02-03 21:34:00,19.3,14.1,30.07,WSW,250,2.0,8.0,80,0.00,,---,0.00,VWS V14.00,2013-02-04 02:34:00,
2013-02-03 21:39:00,19.2,14.1,30.07,West,262,6.0,8.0,80,0.00,,---,0.00,VWS V14.00,2013-02-04 02:39:00,
2013-02-03 21:44:00,19.1,14.2,30.07,SW,236,3.0,8.0,81,0.00,,---,0.00,VWS V14.00,2013-02-04 02:44:00,
2013-02-03 21:49:00,19.0,14.1,30.08,WSW,246,2.0,8.0,81,0.00,,---,0.00,VWS V14.00,2013-02-04 02:49:00,
2013-02-03 21:54:00,19.0,14.4,30.08,WSW,258,4.0,8.0,82,0.00,,---,0.00,VWS V14.00,2013-02-04 02:54:00,
2013-02-03 21:59:00,18.9,14.3,30.08,West,265,2.0,11.0,82,0.00,,---,0.00,VWS V14.00,2013-02-04 02:59:00,
2013-02-03 22:04:00,18.9,14.3,30.08,West,260,2.0,8.0,82,0.00,,---,0.00,VWS V14.00,2013-02-04 03:04:00,
2013-02-03 22:09:00,18.9,14.3,30.08,WSW,252,4.0,8.0,82,0.00,,---,0.00,VWS V14.00,2013-02-04 03:09:00,
2013-02-03 22:14:00,18.8,14.2,30.08,WSW,253,5.0,8.0,82,0.00,,---,0.00,VWS V14.00,2013-02-04 03:14:00,
2013-02-03 22:19:00,18.8,14.2,30.08,WSW,252,1.0,8.0,82,0.00,,---,0.00,VWS V14.00,2013-02-04 03:19:00,
2013-02-03 22:24:00,18.8,14.2,30.08,SW,230,0.0,8.0,82,0.00,,---,0.00,VWS V14.00,2013-02-04 03:24:00,
2013-02-03 22:29:00,18.7,14.1,30.08,WSW,245,2.0,8.0,82,0.00,,---,0.00,VWS V14.00,2013-02-04 03:29:00,
2013-02-03 22:34:00,18.7,14.1,30.08,West,261,2.0,5.0,82,0.00,,---,0.00,VWS V14.00,2013-02-04 03:34:00,
2013-02-03 22:39:00,18.6,14.0,30.08,WSW,257,1.0,5.0,82,0.00,,---,0.00,VWS V14.00,2013-02-04 03:39:00,
2013-02-03 22:44:00,18.6,14.0,30.08,West,267,3.0,5.0,82,0.00,,---,0.00,VWS V14.00,2013-02-04 03:44:00,
2013-02-03 22:49:00,18.6,13.8,30.08,WSW,254,2.0,10.0,81,0.00,,---,0.00,VWS V14.00,2013-02-04 03:49:00,
2013-02-03 22:55:00,18.5,13.6,30.08,WSW,244,0.0,10.0,81,0.00,,---,0.00,VWS V14.00,2013-02-04 03:55:00,
2013-02-03 23:00:00,18.4,13.6,30.07,WSW,251,2.0,10.0,81,0.00,,---,0.00,VWS V14.00,2013-02-04 04:00:00,
2013-02-03 23:05:00,18.3,13.5,30.08,West,262,2.0,5.0,81,0.00,,---,0.00,VWS V14.00,2013-02-04 04:05:00,
2013-02-03 23:10:00,18.1,13.3,30.07,WSW,238,2.0,6.0,81,0.00,,---,0.00,VWS V14.00,2013-02-04 04:10:00,
2013-02-03 23:15:00,17.9,13.4,30.07,WSW,242,2.0,6.0,82,0.00,,---,0.00,VWS V14.00,2013-02-04 04:15:00,
2013-02-03 23:20:00,17.8,13.0,30.07,West,268,0.0,6.0,81,0.00,,---,0.00,VWS V14.00,2013-02-04 04:20:00,
2013-02-03 23:25:00,17.6,12.8,30.07,WSW,239,3.0,7.0,81,0.00,,---,0.00,VWS V14.00,2013-02-04 04:25:00,
2013-02-03 23:30:00,17.4,12.9,30.08,SW,223,0.0,1.0,82,0.00,,---,0.00,VWS V14.00,2013-02-04 04:30:00,
2013-02-03 23:35:00,17.2,12.7,30.08,West,259,3.0,10.0,82,0.00,,---,0.00,VWS V14.00,2013-02-04 04:35:00,
2013-02-03 23:40:00,17.1,12.6,30.08,WSW,254,0.0,10.0,82,0.00,,---,0.00,VWS V14.00,2013-02-04 04:40:00,
2013-02-03 23:45:00,17.0,12.5,30.08,WSW,251,3.0,10.0,82,0.00,,---,0.00,VWS V14.00,2013-02-04 04:45:00,
2013-02-03 23:50:00,16.8,12.5,30.08,WSW,241,2.0,10.0,83,0.00,,---,0.00,VWS V14.00,2013-02-04 04:50:00,
2013-02-03 23:55:00,16.8,12.5,30.08,WSW,248,4.0,11.0,83,0.00,,---,0.00,VWS V14.00,2013-02-04 04:55:00,